SCP
0 0 0 0 0 0 0 0 0 0 0 0 0 0 0 0 0 0 0 0 0 0 0 0 0 0 0 0 0 0 0 0 0 0 0 0 0 0
0 0 0 0 0 0 0 0 0 0 0 0 0 0 0 0 0 0 0 0 0 0 0 0 0 0 0 0 0 0 0 0 0 0 0 0 0 0
0 0 0 0 0 0 0 0 0 0 0 0 0 0 0 0 0 0 0 0 0 0 0 0 0 0 0 0 0 0 0 0 0 0 0 0 0 0
0 0 0 0 0 0 0 0 0 0 0 0 0 0 0 0 0 0 0 0 0 0 0 0 0 0 0 0 0 0 0 0 0 0 0 0 0 0
0 0 0 0 0 0 0 0 0 0 0 0 0 0 0 0 0 0 0 0 0 0 -0 0 0 0 0 0 0 0 0 0 0 0 0 0 0 0
0 0 0 0 0 0 0 0 0 0 0 0 0 0 0 0 0 0 0 0 0 0 0 0 0 0 0 0 0 0 0 0 0 0 0 0 0 0
0 0 0 0 0 0 0 0 0 0 0 0 0 0 0 0 0 0 0 0 0 0 0 0 0 0 0 0 0 0 0 0 0 0 0 0 0 0
0 0 0 0 0 0 0 0 0 0 0 0 0 0 0 0 0 0 0 0 0 0 0 0 0 0 0 0 0 0 0 0 0 0 0 0 0 0
0 0 0 0 0 0 0 0 0 0 0 0 0 0 0 0 0 0 0 0 0 0 0 0 0 0 0 0 0 0 0 0 0 0 0 0 0 0
0 0 0 0 0 0 0 0 0 0 0 0 0 0 0 0 0 0 0 0 0 0 0 0 0 0 0 0 0 0 0 0 0 0 0 0 0 0
0 0 0 0 0 0 0 0 0 0 0 0 0 0 0 0 0 0 0 0 0 0 0 0 0 0 0 0 0 0 0 0 0 0 0 0 0 0
0 0 0 0 0 0 0 0 0 0 0 0 0 0 0 0 0 0 0 0 0 0 0 0 0 0 0 0 0 0 0 0 0 0 0 0 0 0
0 0 0 0 0 0 0 0 0 0 0 0 0 0 0 0 0 0 0 0 0 0 0 0 0 0 0 0 0 0 0 0 0 0 0 0 0 0
0 0 0 0 0 0 0 0 0 0 0 0 0 0 0 0 0 0 0 0 0 0 0 0 0 0 0 0 0 0 0 0 0 0 0 0 0 0
0 0 0 0 0 0 0 0 0 0 0 0 0 0 0 0 0 0 0 0 0 0 0 0 0 0 0 0 0 0 0 0 0 0 0 0 0 0
0 0 0 0 0 0 0 0 0 0 0 0 0 0 0 0 0 0 0 0 0 0 0 0 0 0 0 0 0 0 0 0 0 0 0 0 0 0
0 0 0 0 0 0 0 0 0 0 0 0 0 0 0 0 0 0 0 0 0 0 0 0 0 0 0 0 0 0 0 0 0 0 0 0 0 0
0 0 0 0 0 0 0 0 0 0 0 0 0 0 0 0 0 0 0 0 0 0 0 0 0 0 0 0 0 0 0 0 0 0 0 -0 -0 -0
0 0 0 0 0 0 0 0 0 0 0 0 0 0 0 0 0 0 0 0 0 0 0 0 0 0 0 0 0 0 -0 -0 -0 -0 -0 -0 -0 0
0 0 0 0 0 0 0 0 0 0 0 0 0 0 0 0 0 0 0 0 0 0 0 0 0 0 0 -0 -0 -0 0 -0 -0 0 0 0 0 -0
0 0 0 0 0 0 0 0 0 0 0 0 0 0 0 0 0 0 0 0 0 0 0 0 0 0 -0 -0 -0 -0 -0 -0 -0 -0 0 0 0 0
0 0 0 0 0 0 0 0 0 0 0 0 0 0 0 0 0 0 0 0 0 0 0 0 0 0 -0 0 -0 -0 -0 -0 0 -0 -0 0 0 0
0 0 0 0 0 0 0 0 0 0 0 0 0 0 0 0 0 0 0 0 0 0 0 -0 -0 -0 -0 -0 -0 0 0 0 0 0 0 0 0 -0
Wind_Speed_500mb
27 28 30 28 31 33 35 37 40 32 55 51 58 67 64 62 59 61 63 63 63 65 65 62 61 64 65 65 65 66 64 66 66 65 64 66 67 70
27 29 31 31 33 34 36 38 41 50 48 67 73 74 72 69 68 65 65 61 60 62 60 59 63 63 64 65 66 68 68 67 68 67 65 65 65 67
28 31 31 34 37 38 38 41 46 49 68 82 78 78 78 80 77 73 68 67 68 59 61 60 60 66 68 70 71 72 72 70 68 67 67 66 67 69
29 31 33 36 37 36 43 45 47 50 65 84 83 84 85 86 83 83 81 81 77 73 65 65 69 75 79 78 74 73 69 70 67 69 69 69 70 69
29 33 34 37 40 43 45 50 55 60 66 79 93 86 81 76 85 89 90 87 81 77 66 62 86 75 70 68 69 67 69 72 77 76 72 71 70 70
30 34 36 40 42 45 48 53 59 63 70 78 81 82 79 77 79 84 90 76 70 72 94 81 75 70 67 70 71 71 73 73 73 74 73 71 69 70
36 35 37 38 42 41 44 50 56 65 71 75 77 83 82 79 84 78 70 98 86 80 84 80 83 82 79 73 71 66 65 64 64 65 66 69 69 68
39 37 39 41 43 48 46 47 46 55 66 75 79 82 86 92 83 88 88 90 93 71 77 82 80 88 78 80 81 75 64 62 61 59 60 64 66 67
36 40 44 45 52 50 50 52 55 59 57 68 84 86 93 86 91 96 92 91 91 79 67 81 86 93 95 91 76 67 65 62 61 60 62 62 62 64
36 40 47 56 50 52 57 64 65 71 79 72 75 87 85 87 87 87 90 99 106 97 80 92 80 77 66 65 67 67 63 61 61 61 60 59 61 65
38 44 55 50 52 51 58 69 77 83 74 70 68 71 74 79 84 79 76 78 79 73 68 73 66 64 66 70 68 60 57 53 53 53 55 53 59 62
47 54 48 47 47 51 61 71 79 80 71 74 78 88 79 69 64 60 65 71 73 71 55 50 62 64 56 61 42 49 55 43 32 33 42 45 47 56
48 51 54 50 51 59 57 63 66 64 69 76 77 78 70 71 72 68 65 65 73 78 64 60 70 68 66 79 79 74 61 52 47 52 47 47 48 52
49 54 54 54 59 62 61 59 56 58 64 72 73 69 69 73 77 68 63 58 54 63 60 52 64 59 69 77 78 77 68 54 49 51 50 50 52 55
46 47 52 58 60 61 59 58 59 58 68 74 73 70 65 75 77 65 53 50 54 54 56 47 46 52 57 67 69 70 67 53 50 54 55 56 55 53
52 58 57 58 57 61 62 61 64 62 69 71 71 67 65 77 75 60 56 54 55 59 52 42 40 46 53 53 56 63 58 62 60 61 63 65 64 65
48 56 60 61 65 70 72 67 68 66 73 73 71 69 66 76 70 55 53 50 51 59 56 40 35 41 44 42 52 62 65 67 64 62 63 69 70 70
48 56 62 67 71 75 78 75 73 71 75 76 69 70 70 77 69 56 49 47 50 50 49 41 39 41 44 48 48 52 51 56 58 59 57 62 70 67
48 55 62 69 73 74 76 74 78 77 79 73 73 74 71 73 60 56 49 47 49 49 44 41 42 41 50 62 70 55 55 54 61 65 65 66 70 75
48 58 67 72 75 75 76 74 78 81 81 76 80 70 72 67 59 54 49 48 48 48 49 43 40 43 49 61 69 77 62 61 60 62 62 62 66 65
49 57 65 71 74 76 74 74 79 83 82 80 78 73 70 66 57 52 48 42 44 46 51 50 44 45 54 53 63 73 62 52 51 55 61 62 63 54
48 56 65 73 75 75 75 76 83 84 84 83 79 74 71 63 54 47 42 38 43 43 48 49 48 50 49 47 57 57 60 58 44 45 51 54 53 22
49 57 67 75 76 74 76 77 83 85 85 83 78 73 68 61 47 41 38 40 44 46 45 50 51 48 46 47 45 48 49 47 42 32 26 22 19 24
Wind_Direction_500mb
305 306 306 308 305 304 305 306 304 300 306 311 317 326 324 322 318 315 311 307 305 305 305 300 297 296 294 290 289 287 286 281 280 279 278 277 275 273
304 302 304 307 303 301 299 298 296 297 289 304 314 318 321 321 321 317 315 314 308 304 300 297 297 293 292 289 286 285 283 281 278 278 278 277 276 275
301 303 306 303 301 300 298 299 301 305 303 311 315 320 321 321 319 318 317 316 313 312 307 301 301 296 295 288 285 284 278 276 277 276 276 275 274 274
303 302 304 304 305 305 304 303 308 312 311 311 315 319 319 321 318 316 316 314 312 313 311 305 297 296 291 287 283 282 278 274 274 276 276 273 271 272
302 302 306 305 307 311 313 313 316 315 313 311 312 315 314 312 313 314 311 306 303 310 304 288 295 293 288 281 281 278 277 275 272 273 272 271 271 272
304 307 308 312 314 314 315 316 313 311 312 308 304 304 307 307 307 306 304 299 301 300 301 296 293 289 287 282 281 279 276 275 272 271 268 270 271 271
310 309 311 313 316 310 303 306 306 303 301 302 302 304 303 304 307 310 296 300 298 302 306 307 305 304 304 300 296 294 291 279 273 270 268 264 268 271
308 313 315 314 314 314 306 300 298 300 301 300 302 301 300 302 301 299 299 298 296 300 299 295 300 299 299 297 301 296 284 280 274 272 270 268 267 270
313 318 317 319 317 313 316 318 309 307 300 301 297 299 302 300 305 304 299 297 295 305 300 291 294 289 292 292 290 283 281 276 272 269 271 270 268 269
323 321 321 323 324 323 319 309 307 307 306 304 300 300 300 304 301 300 299 293 291 293 295 291 299 295 299 297 297 293 283 278 271 268 269 269 271 273
328 324 327 325 322 316 311 311 308 303 306 306 303 299 296 296 295 295 295 296 294 293 300 296 301 301 301 298 299 296 295 279 272 268 270 270 273 274
328 326 329 323 318 318 312 306 305 308 315 316 304 301 302 303 306 302 302 296 294 294 299 290 295 298 298 298 301 300 297 295 274 277 278 273 271 274
323 328 330 329 322 317 316 309 309 312 307 306 308 310 311 318 319 312 305 296 291 284 298 293 289 294 285 283 290 296 296 288 277 284 276 272 266 273
321 323 333 326 320 326 322 319 314 311 314 318 319 318 319 313 317 311 306 298 291 290 299 294 287 293 293 284 281 290 292 286 281 281 280 280 272 278
320 322 320 325 326 325 328 331 327 324 326 326 325 319 319 318 319 315 311 308 307 303 300 294 288 295 289 285 279 283 287 286 282 281 282 282 275 268
330 323 330 328 326 331 332 334 335 331 331 325 323 322 320 317 320 319 314 315 312 311 309 299 289 292 287 286 285 281 283 283 287 288 286 282 275 273
321 331 331 334 336 338 338 336 336 332 333 331 327 325 323 318 321 318 315 315 310 316 315 303 295 287 288 289 285 282 284 285 288 289 286 282 276 270
331 333 337 340 340 338 338 336 335 334 334 332 329 326 318 318 320 317 317 315 311 316 314 308 303 299 295 287 281 287 288 285 286 287 285 284 280 270
332 338 341 342 340 337 336 334 333 334 335 332 331 327 317 320 317 312 313 314 311 314 310 309 307 303 300 295 296 292 288 290 292 290 284 282 283 280
336 340 341 340 338 336 336 334 334 335 335 333 329 325 322 324 319 311 307 309 309 310 312 309 306 307 297 292 296 296 293 288 291 290 288 286 284 287
339 339 341 340 338 337 336 335 335 335 334 332 332 326 324 325 318 310 307 306 306 303 306 312 313 308 309 300 288 296 304 302 299 290 287 285 287 288
339 339 341 341 340 338 337 336 336 335 337 335 332 328 328 325 319 311 308 310 309 303 301 308 314 315 314 307 306 305 308 310 302 285 271 270 266 261
335 336 339 341 341 338 338 338 337 335 336 333 329 330 328 325 320 309 304 306 304 307 309 313 318 322 321 322 318 317 319 317 306 295 274 244 248 280
Wind_Speed_850mb
27 28 30 28 31 33 35 37 40 32 55 51 58 67 64 62 59 61 63 63 63 65 65 62 61 64 65 65 65 66 64 66 66 65 64 66 67 70
27 29 31 31 33 34 36 38 41 50 48 67 73 74 72 69 68 65 65 61 60 62 60 59 63 63 64 65 66 68 68 67 68 67 65 65 65 67
28 31 31 34 37 38 38 41 46 49 68 82 78 78 78 80 77 73 68 67 68 59 61 60 60 66 68 70 71 72 72 70 68 67 67 66 67 69
29 31 33 36 37 36 43 45 47 50 65 84 83 84 85 86 83 83 81 81 77 73 65 65 69 75 79 78 74 73 69 70 67 69 69 69 70 69
29 33 34 37 40 43 45 50 55 60 66 79 93 86 81 76 85 89 90 87 81 77 66 62 86 75 70 68 69 67 69 72 77 76 72 71 70 70
30 34 36 40 42 45 48 53 59 63 70 78 81 82 79 77 79 84 90 76 70 72 94 81 75 70 67 70 71 71 73 73 73 74 73 71 69 70
36 35 37 38 42 41 44 50 56 65 71 75 77 83 82 79 84 78 70 98 86 80 84 80 83 82 79 73 71 66 65 64 64 65 66 69 69 68
39 37 39 41 43 48 46 47 46 55 66 75 79 82 86 92 83 88 88 90 93 71 77 82 80 88 78 80 81 75 64 62 61 59 60 64 66 67
36 40 44 45 52 50 50 52 55 59 57 68 84 86 93 86 91 96 92 91 91 79 67 81 86 93 95 91 76 67 65 62 61 60 62 62 62 64
36 40 47 56 50 52 57 64 65 71 79 72 75 87 85 87 87 87 90 99 106 97 80 92 80 77 66 65 67 67 63 61 61 61 60 59 61 65
38 44 55 50 52 51 58 69 77 83 74 70 68 71 74 79 84 79 76 78 79 73 68 73 66 64 66 70 68 60 57 53 53 53 55 53 59 62
47 54 48 47 47 51 61 71 79 80 71 74 78 88 79 69 64 60 65 71 73 71 55 50 62 64 56 61 42 49 55 43 32 33 42 45 47 56
48 51 54 50 51 59 57 63 66 64 69 76 77 78 70 71 72 68 65 65 73 78 64 60 70 68 66 79 79 74 61 52 47 52 47 47 48 52
49 54 54 54 59 62 61 59 56 58 64 72 73 69 69 73 77 68 63 58 54 63 60 52 64 59 69 77 78 77 68 54 49 51 50 50 52 55
46 47 52 58 60 61 59 58 59 58 68 74 73 70 65 75 77 65 53 50 54 54 56 47 46 52 57 67 69 70 67 53 50 54 55 56 55 53
52 58 57 58 57 61 62 61 64 62 69 71 71 67 65 77 75 60 56 54 55 59 52 42 40 46 53 53 56 63 58 62 60 61 63 65 64 65
48 56 60 61 65 70 72 67 68 66 73 73 71 69 66 76 70 55 53 50 51 59 56 40 35 41 44 42 52 62 65 67 64 62 63 69 70 70
48 56 62 67 71 75 78 75 73 71 75 76 69 70 70 77 69 56 49 47 50 50 49 41 39 41 44 48 48 52 51 56 58 59 57 62 70 67
48 55 62 69 73 74 76 74 78 77 79 73 73 74 71 73 60 56 49 47 49 49 44 41 42 41 50 62 70 55 55 54 61 65 65 66 70 75
48 58 67 72 75 75 76 74 78 81 81 76 80 70 72 67 59 54 49 48 48 48 49 43 40 43 49 61 69 77 62 61 60 62 62 62 66 65
49 57 65 71 74 76 74 74 79 83 82 80 78 73 70 66 57 52 48 42 44 46 51 50 44 45 54 53 63 73 62 52 51 55 61 62 63 54
48 56 65 73 75 75 75 76 83 84 84 83 79 74 71 63 54 47 42 38 43 43 48 49 48 50 49 47 57 57 60 58 44 45 51 54 53 22
49 57 67 75 76 74 76 77 83 85 85 83 78 73 68 61 47 41 38 40 44 46 45 50 51 48 46 47 45 48 49 47 42 32 26 22 19 24
Wind_Direction_850mb
305 306 306 308 305 304 305 306 304 300 306 311 317 326 324 322 318 315 311 307 305 305 305 300 297 296 294 290 289 287 286 281 280 279 278 277 275 273
304 302 304 307 303 301 299 298 296 297 289 304 314 318 321 321 321 317 315 314 308 304 300 297 297 293 292 289 286 285 283 281 278 278 278 277 276 275
301 303 306 303 301 300 298 299 301 305 303 311 315 320 321 321 319 318 317 316 313 312 307 301 301 296 295 288 285 284 278 276 277 276 276 275 274 274
303 302 304 304 305 305 304 303 308 312 311 311 315 319 319 321 318 316 316 314 312 313 311 305 297 296 291 287 283 282 278 274 274 276 276 273 271 272
302 302 306 305 307 311 313 313 316 315 313 311 312 315 314 312 313 314 311 306 303 310 304 288 295 293 288 281 281 278 277 275 272 273 272 271 271 272
304 307 308 312 314 314 315 316 313 311 312 308 304 304 307 307 307 306 304 299 301 300 301 296 293 289 287 282 281 279 276 275 272 271 268 270 271 271
310 309 311 313 316 310 303 306 306 303 301 302 302 304 303 304 307 310 296 300 298 302 306 307 305 304 304 300 296 294 291 279 273 270 268 264 268 271
308 313 315 314 314 314 306 300 298 300 301 300 302 301 300 302 301 299 299 298 296 300 299 295 300 299 299 297 301 296 284 280 274 272 270 268 267 270
313 318 317 319 317 313 316 318 309 307 300 301 297 299 302 300 305 304 299 297 295 305 300 291 294 289 292 292 290 283 281 276 272 269 271 270 268 269
323 321 321 323 324 323 319 309 307 307 306 304 300 300 300 304 301 300 299 293 291 293 295 291 299 295 299 297 297 293 283 278 271 268 269 269 271 273
328 324 327 325 322 316 311 311 308 303 306 306 303 299 296 296 295 295 295 296 294 293 300 296 301 301 301 298 299 296 295 279 272 268 270 270 273 274
328 326 329 323 318 318 312 306 305 308 315 316 304 301 302 303 306 302 302 296 294 294 299 290 295 298 298 298 301 300 297 295 274 277 278 273 271 274
323 328 330 329 322 317 316 309 309 312 307 306 308 310 311 318 319 312 305 296 291 284 298 293 289 294 285 283 290 296 296 288 277 284 276 272 266 273
321 323 333 326 320 326 322 319 314 311 314 318 319 318 319 313 317 311 306 298 291 290 299 294 287 293 293 284 281 290 292 286 281 281 280 280 272 278
320 322 320 325 326 325 328 331 327 324 326 326 325 319 319 318 319 315 311 308 307 303 300 294 288 295 289 285 279 283 287 286 282 281 282 282 275 268
330 323 330 328 326 331 332 334 335 331 331 325 323 322 320 317 320 319 314 315 312 311 309 299 289 292 287 286 285 281 283 283 287 288 286 282 275 273
321 331 331 334 336 338 338 336 336 332 333 331 327 325 323 318 321 318 315 315 310 316 315 303 295 287 288 289 285 282 284 285 288 289 286 282 276 270
331 333 337 340 340 338 338 336 335 334 334 332 329 326 318 318 320 317 317 315 311 316 314 308 303 299 295 287 281 287 288 285 286 287 285 284 280 270
332 338 341 342 340 337 336 334 333 334 335 332 331 327 317 320 317 312 313 314 311 314 310 309 307 303 300 295 296 292 288 290 292 290 284 282 283 280
336 340 341 340 338 336 336 334 334 335 335 333 329 325 322 324 319 311 307 309 309 310 312 309 306 307 297 292 296 296 293 288 291 290 288 286 284 287
339 339 341 340 338 337 336 335 335 335 334 332 332 326 324 325 318 310 307 306 306 303 306 312 313 308 309 300 288 296 304 302 299 290 287 285 287 288
339 339 341 341 340 338 337 336 336 335 337 335 332 328 328 325 319 311 308 310 309 303 301 308 314 315 314 307 306 305 308 310 302 285 271 270 266 261
335 336 339 341 341 338 338 338 337 335 336 333 329 330 328 325 320 309 304 306 304 307 309 313 318 322 321 322 318 317 319 317 306 295 274 244 248 280